Weather History for Friday Harbor, WA

Change the Weather History Date:

Sunday, February 3, 2013

  Actual Average Record
Temperature  
Mean Temperature 43 °F -  
Max Temperature 45 °F 45 °F 55 °F (2000)
Min Temperature 41 °F 35 °F 28 °F (2014)
Degree Days  
Heating Degree Days 22    
Moisture  
Dew Point 41 °F    
Average Humidity 93    
Maximum Humidity 100    
Minimum Humidity 86    
Precipitation  
Precipitation 0.01 in - - ()
Sea Level Pressure  
Sea Level Pressure 30.26 in    
Wind  
Wind Speed 4 mph (SE)    
Max Wind Speed 8 mph    
Max Gust Speed -    
Visibility 8 miles    
Events Rain    
Averages and records for this station are not official NWS values.
T = Trace of Precipitation, MM = Missing Value Source: NWS Daily Summary

Daily Weather History Graph

Daily Weather History Graph

Search for Another Location

Airport:

Trip Planner

Search our weather history database for the weather conditions in past years. The results will help you decide how hot, cold, wet, or windy it might be!

Date:

Astronomy

Feb. 03, 2013 Rise Set
Actual Time 7:37 AM PST 5:14 PM PST
Civil Twilight 7:04 AM PST 5:48 PM PST
Nautical Twilight 6:27 AM PST 6:25 PM PST
Astronomical Twilight 5:50 AM PST 7:02 PM PST
Moon 1:13 AM PST (2/3) 10:52 AM PST (2/3)
Length of Visible Light 10h 43m
Length of Day
9h 36m
Waning Gibbous, 47% of the Moon is Illuminated
Feb 3
Waning Gibbous
Feb 9
New
Feb 17
First Quarter
Feb 25
Full
Mar 4
Last Quarter

Hourly Weather History & Observations

Time (PST) Temp. Windchill Dew Point Humidity Pressure Visibility Wind Dir Wind Speed Gust Speed Precip Events Conditions
12:07 AM 42.8 °F 40.1 °F 39.2 °F 87% 30.28 in 10.0 mi ESE 4.6 mph - N/A   Overcast
12:43 AM 42.8 °F 40.1 °F 39.2 °F 87% 30.29 in 10.0 mi East 4.6 mph - N/A   Overcast
12:53 AM 42.1 °F 40.2 °F 39.0 °F 89% 30.29 in 10.0 mi East 3.5 mph - N/A   Overcast
1:53 AM 42.1 °F 38.4 °F 39.0 °F 89% 30.27 in 10.0 mi ESE 5.8 mph - N/A   Overcast
2:53 AM 42.1 °F 38.4 °F 39.0 °F 89% 30.27 in 10.0 mi ESE 5.8 mph - N/A   Overcast
3:53 AM 41.0 °F 36.4 °F 39.0 °F 93% 30.27 in 10.0 mi ESE 6.9 mph - N/A   Overcast
5:30 AM 41.0 °F 37.1 °F 39.2 °F 93% 30.28 in 5.0 mi East 5.8 mph - N/A   Overcast
5:53 AM 41.0 °F 37.1 °F 39.0 °F 93% 30.28 in 5.0 mi ESE 5.8 mph - N/A   Overcast
6:53 AM 41.0 °F 37.1 °F 39.0 °F 93% 30.28 in 6.0 mi ESE 5.8 mph - N/A   Overcast
7:53 AM 41.0 °F 37.1 °F 39.9 °F 96% 30.28 in 6.0 mi SE 5.8 mph - N/A   Overcast
8:53 AM 41.0 °F 38.0 °F 39.9 °F 96% 30.29 in 4.0 mi East 4.6 mph - N/A   Overcast
9:53 AM 42.1 °F 37.1 °F 39.9 °F 92% 30.28 in 9.0 mi ESE 8.1 mph - N/A   Overcast
10:53 AM 43.0 °F 39.5 °F 39.9 °F 89% 30.31 in 10.0 mi SE 5.8 mph - N/A   Overcast
11:39 AM 42.8 °F 40.1 °F 41.0 °F 93% 30.29 in 10.0 mi ESE 4.6 mph - N/A   Overcast
11:53 AM 43.0 °F 39.5 °F 41.0 °F 93% 30.30 in 10.0 mi ESE 5.8 mph - N/A   Overcast
12:40 PM 44.6 °F 41.4 °F 41.0 °F 87% 30.27 in 10.0 mi ESE 5.8 mph - 0.00 in Rain Light Rain
12:48 PM 44.6 °F 41.4 °F 41.0 °F 87% 30.27 in 10.0 mi SE 5.8 mph - 0.00 in   Overcast
12:53 PM 45.0 °F 41.8 °F 41.0 °F 86% 30.27 in 10.0 mi SE 5.8 mph - 0.00 in   Overcast
1:53 PM 45.0 °F 41.8 °F 41.0 °F 86% 30.26 in 10.0 mi SSE 5.8 mph - N/A   Overcast
2:27 PM 44.6 °F 41.4 °F 41.0 °F 87% 30.25 in 10.0 mi SSE 5.8 mph - 0.00 in Rain Light Rain
2:53 PM 44.1 °F 42.5 °F 41.0 °F 89% 30.26 in 7.0 mi South 3.5 mph - 0.00 in Rain Light Rain
3:53 PM 44.1 °F 42.5 °F 42.1 °F 93% 30.25 in 7.0 mi South 3.5 mph - 0.01 in Rain Light Rain
4:53 PM 43.0 °F - 42.1 °F 97% 30.24 in 5.0 mi Calm Calm - 0.00 in Rain Light Rain
5:41 PM 42.8 °F - 42.8 °F 100% 30.24 in 6.0 mi Calm Calm - 0.00 in Rain Light Rain
5:53 PM 43.0 °F - 42.1 °F 97% 30.24 in 6.0 mi Calm Calm - 0.00 in Rain Light Rain
6:53 PM 43.0 °F - 43.0 °F 100% 30.23 in 7.0 mi Calm Calm - 0.00 in Rain Light Rain
7:01 PM 42.8 °F - 42.8 °F 100% 30.23 in 7.0 mi Calm Calm - 0.00 in Rain Light Rain
7:53 PM 42.1 °F - 42.1 °F 100% 30.22 in 5.0 mi Calm Calm - 0.00 in Rain Light Rain
8:06 PM 42.8 °F - 42.8 °F 100% 30.22 in 6.0 mi Calm Calm - 0.00 in   Overcast
8:53 PM 42.1 °F - 42.1 °F 100% 30.22 in 5.0 mi Calm Calm - 0.00 in   Overcast
9:53 PM 42.1 °F 40.2 °F 41.0 °F 96% 30.21 in 10.0 mi South 3.5 mph - N/A   Overcast
10:21 PM 42.8 °F 41.1 °F 42.8 °F 100% 30.21 in 10.0 mi SSW 3.5 mph - N/A   Overcast
10:34 PM 42.8 °F - 42.8 °F 100% 30.21 in 10.0 mi Calm Calm - N/A   Overcast
10:53 PM 43.0 °F 41.3 °F 41.0 °F 93% 30.21 in 10.0 mi SSW 3.5 mph - N/A   Overcast
11:53 PM 41.0 °F 39.0 °F 39.9 °F 96% 30.19 in 10.0 mi SSW 3.5 mph - N/A   Scattered Clouds